period_start,C,m1,H,J0,J1,J2,J3,J4,J5,JA,JB,JC,JD,JJ,JK,JN,#
2013-11-10 00:00:57,0.19,0.53,0.00,20.45,21.84,24.65,5.98,30.63,1005.86,2067.02,3286.23,3245.15,3473.18,350.19,323.66,6.62,0000 0000 0000 0000 000000
2013-11-10 00:01:58,0.10,0.53,0.00,20.46,21.84,24.67,5.93,30.63,1005.87,2067.02,3286.10,3245.05,3473.07,350.07,322.99,6.63,0000 0000 0000 0000 000000
2013-11-10 00:02:58,0.05,0.54,0.00,20.51,21.84,24.68,5.85,30.38,1005.87,2067.04,3286.02,3245.02,3473.02,350.18,324.09,6.64,0000 0000 0000 0000 000000
2013-11-10 00:03:58,0.02,0.54,0.00,20.49,21.84,24.68,5.94,30.92,1005.87,2067.05,3285.90,3245.00,3472.96,349.94,323.53,6.64,0000 0000 0000 0000 000000
2013-11-10 00:04:58,0.03,0.54,0.00,20.51,21.85,24.69,5.97,30.83,1005.88,2067.03,3285.46,3244.86,3472.59,349.38,322.69,6.65,0000 0000 0000 0000 000000
2013-11-10 00:05:58,0.13,0.54,0.00,20.52,21.85,24.73,5.99,30.96,1005.88,2067.01,3285.17,3244.48,3472.24,350.47,323.70,6.65,0000 0000 0000 0000 000000
2013-11-10 00:06:59,0.16,0.54,0.00,20.51,21.86,24.69,5.98,30.96,1005.90,2067.05,3285.03,3244.24,3472.09,350.36,323.60,6.66,0000 0000 0000 0000 000000
2013-11-10 00:07:59,0.11,0.54,0.00,20.52,21.87,24.72,6.01,30.79,1005.89,2067.03,3284.74,3244.09,3472.02,350.30,323.81,6.66,0000 0000 0000 0000 000000
2013-11-10 00:08:59,0.05,0.54,0.00,20.52,21.87,24.67,5.91,30.79,1005.89,2067.01,3284.30,3244.03,3471.92,350.26,323.50,6.67,0000 0000 0000 0000 000000
2013-11-10 00:10:00,0.07,0.54,0.00,20.53,21.87,24.68,5.80,30.42,1005.90,2067.01,3284.11,3243.98,3471.50,349.75,323.02,6.68,0000 0000 0000 0000 000000
2013-11-10 00:11:00,0.10,0.54,0.00,20.52,21.87,24.71,6.01,30.50,1005.89,2067.03,3284.02,3243.73,3471.19,350.67,323.86,6.68,0000 0000 0000 0000 000000
2013-11-10 00:12:00,0.12,0.54,0.00,20.52,21.87,24.73,5.92,30.75,1005.87,2067.05,3283.89,3243.35,3471.07,350.32,323.55,6.69,0000 0000 0000 0000 000000
2013-11-10 00:13:01,0.11,0.54,0.00,20.52,21.87,24.76,6.01,30.58,1005.86,2067.07,3283.43,3243.14,3471.02,350.54,323.74,6.69,0000 0000 0000 0000 000000
2013-11-10 00:14:01,0.13,0.54,0.00,20.51,21.87,24.74,5.91,30.46,1005.86,2067.04,3283.15,3243.04,3470.87,349.53,322.82,6.70,0000 0000 0000 0000 000000
2013-11-10 00:15:01,0.04,0.54,0.00,20.52,21.87,24.73,5.88,30.50,1005.87,2067.03,3283.02,3242.98,3470.45,349.31,323.17,6.71,0000 0000 0000 0000 000000
2013-11-10 00:16:01,0.07,0.54,0.00,20.56,21.87,24.71,6.11,31.04,1005.73,2067.01,3282.58,3242.64,3470.16,350.31,323.55,6.71,0000 0000 0000 0000 000000
2013-11-10 00:17:02,0.19,0.54,0.00,20.56,21.88,24.73,5.92,30.75,1005.57,2067.01,3282.23,3242.26,3470.06,349.83,322.95,6.72,0000 0000 0000 0000 000000
2013-11-10 00:18:02,0.13,0.54,0.00,20.54,21.89,24.72,5.88,30.79,1005.41,2067.02,3282.08,3242.12,3470.00,349.44,322.55,6.72,0000 0000 0000 0000 000000
2013-11-10 00:19:02,0.05,0.54,0.00,20.55,21.89,24.72,5.88,30.71,1005.39,2067.04,3282.03,3242.05,3469.95,348.81,321.96,6.73,0000 0000 0000 0000 000000
2013-11-10 00:20:02,0.04,0.54,0.00,20.56,21.89,24.75,5.98,30.92,1005.39,2067.02,3281.96,3242.01,3469.70,349.83,322.39,6.73,0000 0000 0000 0000 000000
2013-11-10 00:21:02,0.02,0.55,0.00,20.54,21.89,24.68,5.94,30.96,1005.39,2067.00,3281.49,3241.99,3469.29,349.87,322.95,6.74,0000 0000 0000 0000 000000
2013-11-10 00:22:03,0.12,0.55,0.00,20.55,21.89,24.72,5.93,31.13,1005.39,2067.01,3281.18,3241.76,3469.10,349.90,323.03,6.75,0000 0000 0000 0000 000000
2013-11-10 00:23:03,0.11,0.55,0.00,20.56,21.89,24.69,5.85,30.83,1005.36,2067.00,3281.05,3241.37,3468.99,350.26,323.13,6.75,0000 0000 0000 0000 000000
2013-11-10 00:24:03,0.11,0.55,0.00,20.54,21.90,24.74,5.93,30.58,1005.37,2067.00,3280.79,3241.14,3468.84,349.81,322.89,6.76,0000 0000 0000 0000 000000
2013-11-10 00:25:03,0.11,0.55,0.00,20.53,21.90,24.74,5.92,30.63,1005.34,2067.01,3280.30,3241.04,3468.44,350.44,323.47,6.76,0000 0000 0000 0000 000000
2013-11-10 00:26:04,0.14,0.55,0.00,20.54,21.91,24.77,6.02,30.83,1005.38,2067.03,3280.11,3240.97,3468.19,349.84,322.92,6.77,0000 0000 0000 0000 000000
2013-11-10 00:27:04,0.09,0.55,0.00,20.56,21.92,24.75,5.88,30.96,1005.39,2067.02,3279.90,3240.55,3468.07,349.89,322.94,6.78,0000 0000 0000 0000 000000
2013-11-10 00:28:04,0.13,0.55,0.00,20.57,21.92,24.77,5.98,31.08,1005.39,2067.01,3279.40,3240.22,3467.94,349.68,322.75,6.78,0000 0000 0000 0000 000000
2013-11-10 00:29:05,0.16,0.55,0.00,20.57,21.92,24.77,5.83,30.96,1005.37,2067.01,3279.14,3240.08,3467.56,349.50,322.57,6.79,0000 0000 0000 0000 000000
2013-11-10 00:30:05,0.10,0.55,0.00,20.56,21.92,24.78,6.01,30.96,1005.27,2067.00,3279.05,3240.03,3467.22,350.65,323.61,6.79,0000 0000 0000 0000 000000
2013-11-10 00:31:05,0.05,0.55,0.00,20.57,21.92,24.76,6.07,30.96,1005.00,2067.00,3278.99,3239.98,3467.08,351.18,324.00,6.80,0000 0000 0000 0000 000000
2013-11-10 00:32:05,0.03,0.55,0.00,20.57,21.92,24.77,6.07,31.17,1005.16,2067.01,3278.85,3239.93,3467.02,349.93,322.89,6.80,0000 0000 0000 0000 000000
2013-11-10 00:33:06,0.05,0.55,0.00,20.59,21.92,24.77,5.79,30.67,1005.36,2067.01,3278.40,3239.66,3466.92,348.81,321.91,6.81,0000 0000 0000 0000 000000
2013-11-10 00:34:06,0.14,0.55,0.00,20.58,21.93,24.78,5.81,30.67,1005.22,2067.01,3278.14,3239.28,3466.50,349.82,322.81,6.82,0000 0000 0000 0000 000000
2013-11-10 00:35:06,0.16,0.55,0.00,20.58,21.93,24.78,6.02,30.83,1005.08,2067.00,3278.04,3239.10,3466.19,350.49,323.38,6.82,0000 0000 0000 0000 000000
2013-11-10 00:36:06,0.07,0.55,0.00,20.57,21.94,24.78,5.98,30.75,1005.30,2067.00,3277.93,3239.03,3466.06,350.12,323.12,6.83,0000 0000 0000 0000 000000
2013-11-10 00:37:06,0.04,0.55,0.00,20.58,21.94,24.77,5.96,31.21,1005.38,2067.01,3277.47,3238.98,3466.01,350.77,323.28,6.83,0000 0000 0000 0000 000000
2013-11-10 00:38:06,0.09,0.56,0.00,20.58,21.94,24.81,6.02,31.04,1005.39,2067.00,3277.16,3238.84,3465.88,350.16,323.16,6.84,0000 0000 0000 0000 000000
2013-11-10 00:39:07,0.08,0.56,0.00,20.57,21.94,24.81,6.02,30.83,1005.39,2067.00,3277.00,3238.38,3465.45,350.10,323.31,6.85,0000 0000 0000 0000 000000
2013-11-10 00:40:07,0.18,0.56,0.00,20.59,21.94,24.82,5.83,30.83,1005.40,2067.00,3276.71,3238.14,3465.19,349.08,322.17,6.85,0000 0000 0000 0000 000000
2013-11-10 00:41:07,0.11,0.56,0.00,20.58,21.94,24.82,6.00,30.92,1005.42,2067.00,3276.30,3238.05,3465.07,350.73,323.63,6.86,0000 0000 0000 0000 000000
2013-11-10 00:42:07,0.08,0.56,0.00,20.58,21.94,24.84,5.77,31.04,1005.73,2067.00,3276.11,3238.00,3465.00,348.44,321.61,6.86,0000 0000 0000 0000 000000
2013-11-10 00:43:08,0.05,0.56,0.00,20.57,21.95,24.83,5.92,31.17,1005.86,2067.00,3275.93,3237.77,3464.58,349.51,322.83,6.87,0000 0000 0000 0000 000000
2013-11-10 00:44:08,0.13,0.56,0.00,20.57,21.96,24.82,6.04,30.75,1005.87,2067.00,3275.44,3237.35,3464.22,350.48,323.38,6.87,0000 0000 0000 0000 000000
2013-11-10 00:45:08,0.21,0.56,0.00,20.57,21.97,24.79,5.84,30.50,1005.87,2067.00,3275.16,3237.13,3464.07,349.27,322.52,6.88,0000 0000 0000 0000 000000
2013-11-10 00:46:09,0.08,0.56,0.00,20.57,21.97,24.82,5.99,30.79,1005.89,2067.00,3275.06,3237.05,3464.02,350.55,323.70,6.89,0000 0000 0000 0000 000000
2013-11-10 00:47:09,0.03,0.56,0.00,20.59,21.97,24.81,5.89,30.21,1006.04,2067.00,3274.97,3237.00,3463.87,350.35,323.55,6.89,0000 0000 0000 0000 000000
2013-11-10 00:48:09,0.04,0.56,0.00,20.61,21.97,24.83,5.98,30.42,1006.17,2067.00,3274.61,3236.97,3463.44,350.20,323.09,6.90,0000 0000 0000 0000 000000
2013-11-10 00:49:09,0.12,0.56,0.00,20.59,21.97,24.83,6.07,30.75,1006.28,2067.00,3274.27,3236.74,3463.17,349.61,322.94,6.90,0000 0000 0000 0000 000000
2013-11-10 00:50:10,0.12,0.56,0.00,20.61,21.97,24.87,5.90,30.63,1006.35,2067.00,3274.08,3236.31,3463.06,350.31,323.59,6.91,0000 0000 0000 0000 000000
2013-11-10 00:51:10,0.13,0.56,0.00,20.61,21.97,24.86,5.83,30.46,1006.36,2067.00,3274.03,3236.13,3463.01,349.23,322.59,6.92,0000 0000 0000 0000 000000
2013-11-10 00:52:10,0.05,0.56,0.00,20.59,21.98,24.84,5.90,30.63,1006.36,2067.00,3273.79,3236.05,3462.93,349.43,322.80,6.92,0000 0000 0000 0000 000000
2013-11-10 00:53:10,0.06,0.56,0.00,20.61,21.99,24.86,5.93,30.54,1006.37,2067.00,3273.31,3236.00,3462.51,349.66,323.20,6.93,0000 0000 0000 0000 000000
2013-11-10 00:54:10,0.13,0.57,0.00,20.62,21.99,24.82,5.92,30.50,1006.36,2067.00,3273.09,3235.88,3462.22,349.96,323.26,6.93,0000 0000 0000 0000 000000
2013-11-10 00:55:11,0.09,0.57,0.00,20.61,21.99,24.83,5.99,30.29,1006.36,2067.00,3272.95,3235.43,3462.09,349.66,322.99,6.94,0000 0000 0000 0000 000000
2013-11-10 00:56:11,0.14,0.57,0.00,20.61,21.99,24.86,5.82,30.33,1006.37,2067.00,3272.53,3235.15,3462.03,348.85,322.27,6.95,0000 0000 0000 0000 000000
2013-11-10 00:57:11,0.12,0.57,0.00,20.63,21.99,24.86,5.97,30.38,1006.38,2066.99,3272.19,3235.05,3461.82,350.85,324.11,6.95,0000 0000 0000 0000 000000
2013-11-10 00:58:12,0.08,0.57,0.00,20.64,21.99,24.84,5.83,30.21,1006.39,2066.99,3272.07,3235.01,3461.37,348.84,322.21,6.96,0000 0000 0000 0000 000000
2013-11-10 00:59:12,0.07,0.57,0.00,20.63,22.00,24.86,5.93,30.29,1006.39,2066.98,3271.97,3234.99,3461.15,350.82,323.82,6.96,0000 0000 0000 0000 000000
2013-11-10 01:00:12,0.05,0.57,0.00,20.62,22.00,24.87,5.95,30.17,1006.49,2066.99,3271.51,3234.74,3461.05,349.95,323.25,6.97,0000 0000 0000 0000 000000
2013-11-10 01:01:12,0.13,0.57,0.00,20.61,22.00,24.88,5.88,30.42,1006.61,2066.99,3271.19,3234.32,3461.00,350.24,323.61,6.97,0000 0000 0000 0000 000000
2013-11-10 01:02:13,0.15,0.57,0.00,20.62,22.00,24.92,5.90,30.46,1006.68,2066.99,3271.06,3234.12,3460.86,349.34,322.56,6.98,0000 0000 0000 0000 000000
2013-11-10 01:03:13,0.07,0.57,0.00,20.59,22.01,24.91,5.86,30.13,1006.66,2066.99,3270.83,3234.04,3460.47,348.93,323.01,6.99,0000 0000 0000 0000 000000
2013-11-10 01:04:13,0.09,0.57,0.00,20.61,22.02,24.90,5.92,30.13,1006.73,2066.99,3270.35,3234.00,3460.19,349.93,323.26,6.99,0000 0000 0000 0000 000000
2013-11-10 01:05:14,0.10,0.57,0.00,20.65,22.02,24.89,5.94,30.29,1006.83,2066.99,3270.13,3233.95,3460.06,349.47,322.92,7.00,0000 0000 0000 0000 000000
2013-11-10 01:06:14,0.06,0.57,0.00,20.66,22.02,24.97,5.97,30.21,1006.83,2066.99,3270.04,3233.68,3460.02,349.97,323.37,7.00,0000 0000 0000 0000 000000
2013-11-10 01:07:14,0.08,0.57,0.00,20.67,22.02,24.89,6.07,30.63,1006.72,2066.99,3269.97,3233.38,3459.97,350.74,324.05,7.01,0000 0000 0000 0000 000000
2013-11-10 01:08:14,0.08,0.57,0.00,20.67,22.02,24.89,5.79,30.33,1006.69,2066.99,3269.60,3233.15,3459.78,349.24,322.64,7.02,0000 0000 0000 0000 000000
2013-11-10 01:09:15,0.12,0.57,0.00,20.68,22.02,24.87,5.99,30.08,1006.82,2066.98,3269.22,3233.05,3459.34,350.97,324.27,7.02,0000 0000 0000 0000 000000
2013-11-10 01:10:15,0.11,0.57,0.00,20.68,22.02,24.91,5.98,30.50,1006.83,2066.97,3269.08,3233.02,3459.12,350.83,323.48,7.03,0000 0000 0000 0000 000000
2013-11-10 01:11:15,0.05,0.58,0.00,20.68,22.03,24.90,6.00,30.46,1006.85,2066.99,3268.82,3232.92,3459.03,350.51,324.17,7.03,0000 0000 0000 0000 000000
2013-11-10 01:12:16,0.09,0.58,0.00,20.71,22.03,24.89,5.98,30.46,1006.85,2066.99,3268.36,3232.49,3458.96,350.32,323.66,7.04,0000 0000 0000 0000 000000
2013-11-10 01:13:16,0.16,0.58,0.00,20.71,22.04,24.85,6.00,30.63,1006.85,2066.97,3268.13,3232.21,3458.53,350.05,323.39,7.04,0000 0000 0000 0000 000000
2013-11-10 01:14:16,0.12,0.58,0.00,20.71,22.04,24.89,6.05,30.67,1006.85,2066.99,3268.05,3232.08,3458.20,350.72,323.75,7.05,0000 0000 0000 0000 000000
2013-11-10 01:15:16,0.08,0.58,0.00,20.72,22.04,24.92,5.96,30.46,1006.85,2066.99,3267.78,3232.01,3458.07,350.40,323.81,7.06,0000 0000 0000 0000 000000
2013-11-10 01:16:16,0.06,0.58,0.00,20.70,22.04,24.93,5.87,30.71,1006.81,2066.99,3267.34,3231.97,3458.00,349.82,323.10,7.06,0000 0000 0000 0000 000000
2013-11-10 01:17:16,0.09,0.58,0.00,20.69,22.04,24.89,6.04,31.00,1006.65,2066.97,3267.13,3231.58,3457.70,350.04,323.33,7.07,0000 0000 0000 0000 000000
2013-11-10 01:18:17,0.13,0.58,0.00,20.71,22.05,24.90,5.86,30.46,1006.57,2066.97,3267.04,3231.22,3457.29,350.25,322.95,7.07,0000 0000 0000 0000 000000
2013-11-10 01:19:17,0.13,0.58,0.00,20.72,22.04,24.90,5.91,30.63,1006.60,2066.97,3266.85,3231.08,3457.10,349.61,323.41,7.08,0000 0000 0000 0000 000000
2013-11-10 01:20:17,0.08,0.58,0.00,20.71,22.05,24.91,5.94,30.46,1006.55,2066.96,3266.39,3231.03,3457.03,349.79,323.14,7.09,0000 0000 0000 0000 000000
2013-11-10 01:21:18,0.07,0.58,0.00,20.70,22.05,24.89,6.02,30.50,1006.48,2066.97,3266.14,3230.99,3456.97,350.88,323.63,7.09,0000 0000 0000 0000 000000
2013-11-10 01:22:18,0.04,0.58,0.00,20.70,22.06,24.93,5.82,30.21,1006.39,2066.95,3266.02,3230.84,3456.80,349.23,322.76,7.10,0000 0000 0000 0000 000000
2013-11-10 01:23:18,0.06,0.58,0.00,20.71,22.07,24.92,5.89,30.13,1006.42,2066.96,3265.76,3230.56,3456.48,350.06,323.30,7.10,0000 0000 0000 0000 000000
2013-11-10 01:24:18,0.16,0.58,0.00,20.72,22.07,24.96,6.07,30.50,1006.40,2066.97,3265.31,3230.22,3456.17,349.96,323.02,7.11,0000 0000 0000 0000 000000
2013-11-10 01:25:19,0.17,0.58,0.00,20.69,22.07,24.89,5.94,30.29,1006.39,2066.95,3265.11,3230.08,3456.06,349.29,322.57,7.12,0000 0000 0000 0000 000000
2013-11-10 01:26:19,0.05,0.58,0.00,20.69,22.07,24.88,5.75,30.38,1006.36,2066.93,3264.92,3230.00,3456.02,348.20,321.59,7.12,0000 0000 0000 0000 000000
2013-11-10 01:27:19,0.02,0.58,0.00,20.70,22.07,24.92,5.98,30.42,1006.36,2066.91,3264.43,3229.96,3455.89,350.11,323.31,7.13,0000 0000 0000 0000 000000
2013-11-10 01:28:20,0.09,0.58,0.00,20.74,22.07,24.88,5.97,30.63,1006.35,2066.95,3264.16,3229.76,3455.54,349.98,323.15,7.13,0000 0000 0000 0000 000000
2013-11-10 01:29:20,0.16,0.59,0.00,20.73,22.07,24.90,5.98,30.83,1006.35,2066.97,3264.05,3229.33,3455.22,350.16,323.13,7.14,0000 0000 0000 0000 000000
2013-11-10 01:30:20,0.15,0.59,0.00,20.76,22.07,24.97,6.02,30.67,1006.36,2066.97,3263.87,3229.13,3455.08,350.13,323.25,7.14,0000 0000 0000 0000 000000
2013-11-10 01:31:20,0.09,0.59,0.00,20.75,22.08,24.93,5.77,30.54,1006.36,2066.94,3263.46,3229.05,3455.02,348.48,321.73,7.15,0000 0000 0000 0000 000000
2013-11-10 01:32:21,0.06,0.59,0.00,20.75,22.09,24.92,5.89,30.79,1006.36,2066.95,3263.18,3229.01,3454.95,350.23,323.50,7.16,0000 0000 0000 0000 000000
2013-11-10 01:33:21,0.04,0.59,0.00,20.76,22.09,24.91,6.02,31.00,1006.36,2066.95,3263.06,3228.95,3454.64,350.40,323.51,7.16,0000 0000 0000 0000 000000
2013-11-10 01:34:21,0.07,0.59,0.00,20.73,22.09,24.98,5.88,30.88,1006.36,2066.89,3262.97,3228.59,3454.26,350.12,323.36,7.17,0000 0000 0000 0000 000000
2013-11-10 01:35:21,0.06,0.59,0.00,20.72,22.09,24.97,6.10,31.29,1006.35,2066.68,3262.53,3228.23,3454.10,351.20,324.06,7.17,0000 0000 0000 0000 000000
2013-11-10 01:36:21,0.05,0.59,0.00,20.74,22.09,24.96,5.98,30.79,1006.35,2066.72,3262.19,3228.07,3454.02,350.14,323.29,7.18,0000 0000 0000 0000 000000
2013-11-10 01:37:22,0.05,0.59,0.00,20.74,22.09,24.92,5.96,30.83,1006.36,2066.66,3262.06,3228.00,3453.74,350.35,323.49,7.19,0000 0000 0000 0000 000000
2013-11-10 01:38:22,0.04,0.59,0.00,20.75,22.10,24.90,5.84,30.75,1006.36,2066.56,3261.75,3227.73,3453.30,348.69,321.66,7.19,0000 0000 0000 0000 000000
2013-11-10 01:39:22,0.10,0.59,0.00,20.75,22.10,24.96,5.83,30.38,1006.36,2066.54,3261.28,3227.33,3453.11,350.10,323.24,7.20,0000 0000 0000 0000 000000
2013-11-10 01:40:23,0.12,0.59,0.00,20.77,22.11,24.93,5.80,30.29,1006.34,2066.49,3261.09,3227.13,3453.01,349.72,322.93,7.20,0000 0000 0000 0000 000000
2013-11-10 01:41:23,0.04,0.59,0.00,20.78,22.11,24.94,5.95,30.96,1006.34,2066.44,3260.96,3227.05,3452.73,349.27,321.91,7.21,0000 0000 0000 0000 000000
2013-11-10 01:42:23,0.06,0.59,0.00,20.79,22.12,24.93,6.16,31.33,1006.36,2066.49,3260.55,3226.98,3452.31,350.74,323.79,7.21,0000 0000 0000 0000 000000
2013-11-10 01:43:24,0.14,0.59,0.00,20.80,22.12,24.94,6.06,31.38,1006.25,2066.50,3260.17,3226.63,3452.11,349.73,322.82,7.22,0000 0000 0000 0000 000000
2013-11-10 01:44:24,0.14,0.59,0.00,20.81,22.12,25.00,5.99,31.00,1006.13,2066.39,3259.70,3226.24,3452.03,350.01,323.03,7.23,0000 0000 0000 0000 000000
2013-11-10 01:45:24,0.08,0.59,0.00,20.81,22.12,24.99,6.02,31.21,1006.18,2066.30,3259.28,3226.07,3451.95,350.79,323.77,7.23,0000 0000 0000 0000 000000
2013-11-10 01:46:24,0.05,0.59,0.00,20.82,22.12,24.95,5.93,31.13,1005.93,2066.31,3259.09,3226.01,3451.61,349.24,322.25,7.24,0000 0000 0000 0000 000000
2013-11-10 01:47:25,0.11,0.60,0.00,20.79,22.12,24.94,5.93,31.08,1005.88,2066.38,3259.02,3225.91,3451.24,350.09,323.04,7.24,0000 0000 0000 0000 000000
2013-11-10 01:48:25,0.12,0.60,0.00,20.81,22.13,24.98,5.83,30.83,1005.88,2066.36,3258.93,3225.58,3451.08,349.06,322.32,7.25,0000 0000 0000 0000 000000
2013-11-10 01:49:25,0.11,0.60,0.00,20.80,22.14,24.94,5.97,31.17,1005.89,2066.31,3258.55,3225.21,3450.98,350.12,323.29,7.26,0000 0000 0000 0000 000000
2013-11-10 01:50:26,0.08,0.60,0.00,20.79,22.14,25.00,5.97,30.83,1005.92,2066.25,3258.20,3225.08,3450.84,350.29,323.41,7.26,0000 0000 0000 0000 000000
2013-11-10 01:51:26,0.03,0.60,0.00,20.80,22.14,25.00,5.80,30.96,1005.91,2066.18,3258.06,3225.03,3450.46,349.48,322.47,7.27,0000 0000 0000 0000 000000
2013-11-10 01:52:26,0.03,0.60,0.00,20.79,22.14,24.94,5.87,31.25,1005.90,2066.16,3257.97,3224.99,3450.16,350.57,323.49,7.27,0000 0000 0000 0000 000000
2013-11-10 01:53:27,0.05,0.60,0.00,20.81,22.14,24.98,5.90,31.00,1005.90,2066.11,3257.59,3224.87,3450.06,350.70,323.48,7.28,0000 0000 0000 0000 000000
2013-11-10 01:54:27,0.07,0.60,0.00,20.82,22.14,24.98,5.80,31.21,1005.90,2066.13,3257.26,3224.50,3450.00,348.94,321.94,7.29,0000 0000 0000 0000 000000
2013-11-10 01:55:27,0.13,0.60,0.00,20.80,22.15,24.99,5.95,31.83,1005.88,2066.15,3257.08,3224.22,3449.88,349.59,322.12,7.29,0000 0000 0000 0000 000000
2013-11-10 01:56:27,0.11,0.60,0.00,20.80,22.15,25.00,5.96,31.17,1005.88,2066.13,3256.89,3224.09,3449.45,349.93,322.89,7.30,0000 0000 0000 0000 000000
2013-11-10 01:57:28,0.08,0.60,0.00,20.82,22.15,25.00,5.88,31.33,1005.87,2066.08,3256.40,3224.02,3449.16,349.77,323.23,7.30,0000 0000 0000 0000 000000
2013-11-10 01:58:28,0.07,0.60,0.00,20.80,22.16,25.02,6.02,31.13,1005.87,2066.06,3256.15,3223.94,3449.06,350.18,323.45,7.31,0000 0000 0000 0000 000000
2013-11-10 01:59:28,0.07,0.60,0.00,20.80,22.17,25.10,5.90,30.88,1005.87,2066.05,3256.05,3223.58,3448.80,350.28,323.20,7.31,0000 0000 0000 0000 000000
2013-11-10 02:00:28,0.11,0.60,0.00,20.82,22.17,25.01,5.94,31.21,1005.89,2066.03,3255.96,3223.25,3448.35,349.90,322.83,7.32,0000 0000 0000 0000 000000
2013-11-10 02:01:29,0.11,0.60,0.00,20.82,22.17,25.07,5.94,31.38,1005.90,2066.02,3255.64,3223.10,3448.13,349.41,322.38,7.33,0000 0000 0000 0000 000000
2013-11-10 02:02:29,0.09,0.60,0.00,20.82,22.17,25.07,5.92,30.96,1005.91,2066.04,3255.26,3223.03,3448.04,350.28,323.29,7.33,0000 0000 0000 0000 000000
2013-11-10 02:03:30,0.07,0.60,0.00,20.83,22.17,25.05,5.94,30.88,1005.88,2066.03,3255.09,3223.00,3448.00,349.71,322.64,7.34,0000 0000 0000 0000 000000
2013-11-10 02:04:30,0.03,0.60,0.00,20.80,22.17,25.02,5.97,31.29,1005.87,2066.01,3255.03,3222.92,3447.90,350.47,323.38,7.34,0000 0000 0000 0000 000000
2013-11-10 02:05:30,0.05,0.60,0.00,20.78,22.18,24.99,5.91,30.83,1005.88,2066.01,3254.74,3222.61,3447.57,349.74,323.10,7.35,0000 0000 0000 0000 000000
2013-11-10 02:06:30,0.14,0.60,0.00,20.78,22.19,25.02,5.98,31.38,1005.90,2066.00,3254.30,3222.27,3447.23,350.60,323.53,7.36,0000 0000 0000 0000 000000
2013-11-10 02:07:31,0.16,0.61,0.00,20.82,22.19,25.03,5.93,31.46,1005.89,2066.01,3254.11,3222.10,3447.08,349.67,322.62,7.36,0000 0000 0000 0000 000000
2013-11-10 02:08:31,0.07,0.61,0.00,20.86,22.19,25.02,5.94,31.33,1005.88,2066.00,3253.99,3222.04,3447.01,350.14,323.02,7.37,0000 0000 0000 0000 000000
2013-11-10 02:09:31,0.04,0.61,0.00,20.85,22.19,25.02,5.94,31.42,1005.94,2066.00,3253.55,3221.98,3446.88,350.02,322.57,7.37,0000 0000 0000 0000 000000
2013-11-10 02:10:31,0.09,0.61,0.00,20.87,22.19,25.07,5.90,31.25,1006.22,2066.00,3253.20,3221.79,3446.52,349.45,322.88,7.38,0000 0000 0000 0000 000000
2013-11-10 02:11:32,0.14,0.61,0.00,20.87,22.19,25.07,5.92,31.17,1006.34,2066.00,3253.07,3221.41,3446.20,350.26,323.26,7.38,0000 0000 0000 0000 000000
2013-11-10 02:12:32,0.12,0.61,0.00,20.87,22.19,25.05,5.90,31.13,1006.36,2066.01,3252.91,3221.17,3446.07,349.90,322.93,7.39,0000 0000 0000 0000 000000
2013-11-10 02:13:32,0.09,0.61,0.00,20.85,22.19,25.06,5.85,31.33,1006.36,2066.00,3252.49,3221.06,3446.03,350.16,323.18,7.40,0000 0000 0000 0000 000000
2013-11-10 02:14:32,0.08,0.61,0.00,20.85,22.20,25.06,5.90,30.92,1006.36,2066.00,3252.19,3221.01,3445.93,349.82,322.66,7.40,0000 0000 0000 0000 000000
2013-11-10 02:15:33,0.07,0.61,0.00,20.86,22.20,25.02,5.83,31.29,1006.38,2066.00,3252.05,3220.88,3445.48,349.97,323.55,7.41,0000 0000 0000 0000 000000
2013-11-10 02:16:33,0.11,0.61,0.00,20.86,22.21,25.02,5.97,31.25,1006.48,2066.00,3251.83,3220.51,3445.18,350.37,323.60,7.41,0000 0000 0000 0000 000000
2013-11-10 02:17:33,0.15,0.61,0.00,20.86,22.22,25.04,6.01,31.13,1006.52,2066.00,3251.37,3220.22,3445.06,350.68,324.13,7.42,0000 0000 0000 0000 000000
2013-11-10 02:18:34,0.13,0.61,0.00,20.85,22.22,25.08,6.07,30.96,1006.46,2066.00,3251.13,3220.08,3444.99,349.66,322.76,7.43,0000 0000 0000 0000 000000
2013-11-10 02:19:34,0.08,0.61,0.00,20.82,22.22,25.07,5.98,30.71,1006.39,2066.00,3250.85,3220.01,3444.53,349.97,323.06,7.43,0000 0000 0000 0000 000000
2013-11-10 02:20:34,0.12,0.61,0.00,20.83,22.22,25.07,5.98,31.13,1006.39,2066.00,3250.36,3219.82,3444.19,350.58,323.62,7.44,0000 0000 0000 0000 000000
2013-11-10 02:21:34,0.14,0.61,0.00,20.82,22.22,25.14,5.93,31.13,1006.52,2066.00,3250.12,3219.47,3444.07,350.32,323.41,7.44,0000 0000 0000 0000 000000
2013-11-10 02:22:35,0.11,0.62,0.00,20.79,22.22,25.09,6.02,30.96,1006.67,2066.00,3250.01,3219.21,3444.02,350.26,323.46,7.45,0000 0000 0000 0000 000000
2013-11-10 02:23:35,0.07,0.62,0.00,20.78,22.22,25.07,6.02,30.79,1006.50,2066.00,3249.78,3219.08,3443.92,350.28,323.42,7.46,0000 0000 0000 0000 000000
2013-11-10 02:24:35,0.08,0.62,0.00,20.77,22.22,25.10,5.77,30.46,1006.45,2066.00,3249.31,3219.02,3443.58,348.55,322.25,7.46,0000 0000 0000 0000 000000
2013-11-10 02:25:35,0.11,0.62,0.00,20.77,22.22,25.10,5.98,30.63,1006.49,2066.00,3249.10,3218.98,3443.23,350.32,323.12,7.47,0000 0000 0000 0000 000000
2013-11-10 02:26:36,0.08,0.62,0.00,20.79,22.24,25.09,5.95,30.79,1006.65,2066.00,3249.00,3218.77,3443.08,350.57,323.73,7.47,0000 0000 0000 0000 000000
2013-11-10 02:27:36,0.09,0.62,0.00,20.82,22.24,25.11,5.93,31.00,1006.63,2066.00,3248.63,3218.35,3443.00,349.89,323.06,7.48,0000 0000 0000 0000 000000
2013-11-10 02:28:36,0.14,0.62,0.00,20.80,22.24,25.11,6.08,31.46,1006.59,2065.99,3248.26,3218.13,3442.83,350.85,323.53,7.48,0000 0000 0000 0000 000000
2013-11-10 02:29:36,0.12,0.62,0.00,20.82,22.24,25.12,5.90,30.92,1006.55,2065.99,3248.09,3218.05,3442.39,349.33,322.44,7.49,0000 0000 0000 0000 000000
2013-11-10 02:30:37,0.08,0.62,0.00,20.80,22.24,25.14,5.92,31.13,1006.54,2065.99,3248.01,3218.01,3442.16,350.86,323.71,7.50,0000 0000 0000 0000 000000
2013-11-10 02:31:37,0.04,0.62,0.00,20.81,22.24,25.13,5.92,30.79,1006.54,2065.98,3247.83,3217.99,3442.06,350.37,323.31,7.50,0000 0000 0000 0000 000000
2013-11-10 02:32:37,0.06,0.62,0.00,20.83,22.24,25.09,5.98,30.92,1006.50,2065.99,3247.37,3217.75,3442.02,349.40,322.67,7.51,0000 0000 0000 0000 000000
2013-11-10 02:33:37,0.12,0.62,0.00,20.83,22.24,25.11,6.00,31.17,1006.54,2065.99,3247.13,3217.40,3441.97,350.34,323.43,7.51,0000 0000 0000 0000 000000
2013-11-10 02:34:38,0.13,0.62,0.00,20.80,22.24,25.11,5.88,30.92,1006.49,2065.99,3247.03,3217.15,3441.59,350.01,322.57,7.52,0000 0000 0000 0000 000000
2013-11-10 02:35:38,0.11,0.62,0.00,20.81,22.24,25.10,5.88,31.08,1006.50,2065.99,3246.66,3217.05,3441.22,349.63,322.22,7.53,0000 0000 0000 0000 000000
2013-11-10 02:36:38,0.11,0.62,0.00,20.83,22.25,25.13,5.88,31.17,1006.43,2065.98,3246.25,3217.02,3441.08,349.40,322.50,7.53,0000 0000 0000 0000 000000
2013-11-10 02:37:38,0.05,0.62,0.00,20.88,22.25,25.11,5.93,31.13,1006.38,2065.96,3246.08,3216.85,3441.02,350.14,323.15,7.54,0000 0000 0000 0000 000000